Volver al catálogo

DELTA 1 DEB

ActivoLEO
NORAD 10752·DEBRIS·🇺🇸 United States

Lanzado Jul 29, 1976 desde Vandenberg Space Force Base

Loading…

Próximos Pases (próximas 24 horas)

TLE

ActualizadoSource: Space-Track

Época: Sep 14, 2026, 05:57 UTC

1 10752U 76077AZ  26257.24860009 -.00002000  00000-0 -65758-2 0  9990
2 10752 101.7372 164.3072 0314753 164.9316 346.6735 12.83856024314779

Sigue DELTA 1 DEB en tiempo real con AllMySat

Download on the App Store